Regional Weather Roundup
Issued by NWS Albany, NY

Home | Current Version | Previous Version | Graphics & Text | Print | Product List | Glossary On
Versions: 1 2 3 4 5 6 7 8 9 10 11 12 13 14 15 16 17 18 19 20 21 22 23 24 25 26 27
000
ASUS41 KALY 142210
RWRALY

NEW YORK STATE HOURLY WEATHER ROUNDUP
NATIONAL WEATHER SERVICE ALBANY NY
500 PM EST THU DEC 14 2017

NOTE: "FAIR" INDICATES FEW OR NO CLOUDS BELOW 12,000 FEET WITH NO
SIGNIFICANT WEATHER AND/OR NO OBSTRUCTIONS TO VISIBILITY.

NYZ032-033-038>043-046>054-057>066-NYZ062>081-082-084-142300-
EAST


CITY           SKY/WX    TMP DP  RH WIND       PRES   REMARKS
ALBANY         PTCLDY    16   3  56 NW7       29.93R WCI   6
GLENS FALLS    CLEAR     16  -3  43 W6        29.87R WCI   7
POUGHKEEPSIE   CLEAR     23   3  42 W12       29.90R WCI  12
NEWBURGH       CLEAR     21   7  53 W12G17    29.91R WCI   9
MONTGOMERY     CLEAR     23   3  42 W5        29.90R WCI  17
WHITE PLAINS   PTCLDY    25   7  46 NW16G28   29.88R WCI  12
ISLIP          PTCLDY    28  10  46 W17       29.89R WCI  16
NEW YORK CITY  PTCLDY    30  11  45 NW16G25   29.93R WCI  19
CENTRAL PARK   CLEAR     28   9  44 VRB5      29.95R WCI  23
$$

NYZ005>009-017-018-044>046-055-056-142300-
CENTRAL


CITY           SKY/WX    TMP DP  RH WIND       PRES   REMARKS
FULTON         SNOW      16  13  88 SW12      29.94R VSB 1/2 WCI   3
SYRACUSE       FLURRIES  16  10  77 W13       29.95R WCI   2
ROME           LGT SNOW  16  12  84 W9        29.94R FOG     WCI   4
ELMIRA         CLEAR     18   1  47 W7        29.94R WCI   9
BINGHAMTON     CLEAR     12   2  64 NW8       29.86R WCI   0
MONTICELLO     CLEAR     15   4  61 W12       29.86R WCI   2
$$

NYZ026>034-041>043-087-142300-
NORTH


CITY           SKY/WX    TMP DP  RH WIND       PRES   REMARKS
WATERTOWN      CLEAR     13   4  67 W16G24    29.93R WCI  -3
FORT DRUM      NOT AVBL
OGDENSBURG     FAIR       4  -3  72 SW5       29.89R WCI  -5
MASSENA        CLEAR      6  -3  66 SW10      29.89R WCI  -9
SARANAC LAKE   CLEAR      3  -5  69 W8        29.72R WCI -10
PLATTSBURGH    CLEAR     11  -6  46 W10       29.85R WCI  -3
$$

NYZ001>004-010>016-019>021-085-142300-
WEST


CITY           SKY/WX    TMP DP  RH WIND       PRES   REMARKS
NIAGARA FALLS  CLEAR     17   4  56 W12       29.97R WCI   4
BUFFALO        PTCLDY    16   6  65 W7        29.97R WCI   6
DUNKIRK        CLOUDY    24  11  57 W10       29.97S WCI  14
JAMESTOWN      LGT SNOW  16  12  84 SW7       29.91R FOG     WCI   6
WELLSVILLE     CLOUDY    12   4  70 W6        29.88R WCI   3
ROCHESTER      MOCLDY    17   6  62 W10       29.96R WCI   5
PENN YAN       CLEAR     16   0  49 W6        29.94R WCI   7
$$

             KEY
       WCI = WIND CHILL INDEX
       VSB = VISIBILITY
       HX  = HEAT INDEX
$$




USA.gov is the U.S. government's official web portal to all federal, state and local government web resources and services.